Location: Peterborough
(44.3091°N, 78.3197°W)
Time: 19:38:47
(UTC-04:00)

A-11 Canister half - Pass Details

Date: 28 March 2023
Orbit: 1526 x 1682 km, 47.3° (Epoch: 06 June)

Event Time Altitude Azimuth Distance (km) Brightness Sun altitude
Rises 23:42:35 0° 294° (WNW) 4,836 12.3 -37.8°
Reaches altitude 10° 23:46:09 10° 285° (WNW) 3,823 11.5 -38.2°
Enters shadow 23:52:43 30° 244° (WSW) 2,540 10.0 -38.7°
